[[{"header":{"parameterUnit":"m.s-1","parameterCategory":1,"la1":30.2991,"la2":30.254,"lo1":-89.0895,"lo2":-89.0444,"dy":0.0017,"dx":0.0017,"nx":28,"ny":28,"refTime":"2025-06-23T03:00:00:Z","depth":0,"parameterNumber":2,"parameterNumberName":"U-component_of_WINDS"},"data":[0,0,0,0,0,0,0,0,0,0,0,0,0,0,0,0,0,0,0,0,0,0,0,0,0,0,0,0,0,0,0,0,0,0,0,0,0,0,0,0,0,0,0,0,0,0,0,0,0,0,0,0,0,0,0,0,0,0,-1.0594,-1.0594,0,-1.0598,-1.0598,-1.0598,-1.0561,-1.056,-1.0559,-1.0558,-1.0563,-1.0564,-1.0565,0,0,0,0,0,0,0,0,0,0,0,0,0,-1.0556,-1.0557,-1.0594,-1.0594,-1.0594,-1.0598,-1.0598,-1.0598,-1.0561,-1.056,-1.0559,-1.0558,-1.0563,-1.0564,-1.0565,0,0,0,0,0,0,0,0,0,0,0,0,0,-1.0567,-1.0557,-1.0594,-1.0576,-1.0575,-1.0598,-1.0598,-1.0598,-1.0561,-1.056,-1.0558,-1.0557,-1.0562,-1.0564,-1.0565,-1.0606,0,0,-1.057,-1.0571,0,0,0,0,0,0,0,0,-1.0567,-1.0569,-1.0579,-1.0577,-1.0576,-1.0577,-1.0586,-1.0601,-1.0562,-1.0566,-1.0558,-1.0556,-1.0569,-1.057,-1.0574,-1.0606,-1.0606,-1.0571,-1.0572,-1.0572,-1.0573,0,0,0,0,0,0,0,-1.0566,-1.0568,-1.0595,-1.0579,-1.0577,-1.0568,-1.0568,-1.0589,-1.0576,-1.0566,-1.0563,-1.0564,-1.0568,-1.0573,-1.0574,-1.0607,-1.057,-1.0572,-1.0573,-1.0574,-1.0672,-1.0673,0,0,0,0,0,0,-1.0567,-1.0568,-1.0595,-1.0595,-1.0567,-1.057,-1.057,-1.0578,-1.0576,-1.0574,-1.0565,-1.0562,-1.0571,-1.0572,-1.0574,-1.0621,-1.0572,-1.0574,-1.0575,-1.067,-1.0672,-1.0674,0,0,0,0,0,0,-1.0567,-1.057,-1.0595,-1.0581,-1.0583,-1.0572,-1.0582,-1.0579,-1.0584,-1.0576,-1.0573,-1.0572,-1.0569,-1.0572,-1.0598,-1.0621,-1.0574,-1.0576,-1.0668,-1.0671,-1.0673,-1.0716,0,0,0,0,0,0,-1.0566,-1.057,-1.0585,-1.0582,-1.0584,-1.0619,-1.0583,-1.058,-1.0587,-1.0583,-1.0582,-1.058,-1.0568,-1.0596,-1.06,-1.0622,-1.0577,-1.0666,-1.0669,-1.0672,-1.0712,-1.0719,-1.0725,0,0,0,0,0,-1.0565,-1.0597,-1.0586,-1.059,-1.0603,-1.062,-1.0622,-1.0608,-1.0589,-1.0604,-1.0598,-1.058,-1.0618,-1.0599,-1.0603,-1.0626,-1.0665,-1.0668,-1.0672,-1.0709,-1.0718,-1.0725,0,0,0,0,0,0,-1.0605,-1.0597,-1.0584,-1.0617,-1.0619,-1.0614,-1.0633,-1.0617,-1.0626,-1.0622,-1.0604,-1.0604,-1.0634,-1.0633,-1.0612,-1.0665,-1.0638,-1.0642,-1.0665,-1.0673,-1.0679,-1.0679,-1.0579,0,0,0,0,0,-1.0617,-1.0632,-1.0624,-1.0654,-1.0655,-1.0644,-1.0651,-1.064,-1.0642,-1.0643,-1.064,-1.0643,-1.0655,-1.0664,-1.0675,-1.0712,-1.0711,-1.073,-1.0736,-1.0742,-1.0746,-1.0765,-1.0773,-1.0686,-1.0686,-1.0686,0,0,-1.0643,-1.0641,-1.0651,-1.0662,-1.0662,-1.0678,-1.0645,-1.0663,-1.0675,-1.0646,-1.067,-1.0668,-1.0671,-1.0702,-1.0716,-1.0702,-1.077,-1.0746,-1.0751,-1.0752,-1.0769,-1.0778,-1.0785,-1.0688,-1.0688,-1.0688,0,0,-1.0699,-1.0699,-1.0723,-1.0724,-1.0726,-1.0718,-1.0724,-1.0721,-1.0718,-1.0742,-1.0721,-1.0734,-1.0756,-1.0759,-1.0763,-1.0819,-1.0802,-1.0823,-1.0858,-1.0876,-1.0883,-1.0889,-1.0909,-1.0916,-1.0828,-1.0828,-1.0828,0,-1.0732,-1.0754,-1.0738,-1.0757,-1.0762,-1.0736,-1.0761,-1.0763,-1.0768,-1.0773,-1.0757,-1.0784,-1.0783,-1.0815,-1.0829,-1.0833,-1.0839,-1.0823,-1.0883,-1.0889,-1.0895,-1.0913,-1.0921,-1.083,-1.083,-1.083,-1.0829,0,-1.0794,-1.0809,-1.0829,-1.0834,-1.0841,-1.0863,-1.085,-1.086,-1.0848,-1.0842,-1.0867,-1.0866,-1.0876,-1.0883,-1.0872,-1.0913,-1.0904,-1.0886,-1.0858,-1.0906,-1.0923,-1.093,-1.0834,-1.0833,-1.0832,-1.0832,0,0,-1.0875,-1.087,-1.0877,-1.0879,-1.0879,-1.0891,-1.0912,-1.0921,-1.0929,-1.0934,-1.0951,-1.097,-1.0953,-1.0958,-1.0947,-1.0963,-1.1007,-1.0943,-1.0943,-1.0955,-1.1052,-1.1066,-1.1074,-1.0996,-1.0998,-1.0999,-1.1052,0,-1.0929,-1.0963,-1.0949,-1.0985,-1.0999,-1.0975,-1.0993,-1.0995,-1.099,-1.1001,-1.0996,-1.1009,-1.0986,-1.0989,-1.1004,-1.0999,-1.1027,-1.0995,-1.1012,-1.1013,-1.1012,-1.1083,-1.1097,-1.1148,-1.1059,-1.106,-1.1061,0,-1.0996,-1.1003,-1.104,-1.1036,-1.1042,-1.1058,-1.1066,-1.1077,-1.1079,-1.1074,-1.1079,-1.1064,-1.1084,-1.1057,-1.1084,-1.1063,-1.1069,-1.1068,-1.1069,-1.107,-1.104,-1.1086,-1.1164,-1.1171,-1.1071,-1.107,-1.107,0,-1.1051,-1.1069,-1.1094,-1.1096,-1.1093,-1.1105,-1.1104,-1.1104,-1.1111,-1.1117,-1.1121,-1.1131,-1.1136,-1.1143,-1.1131,-1.1112,-1.116,-1.1132,-1.1157,-1.1157,-1.1168,-1.1167,-1.1248,-1.1173,-1.1172,-1.1172,-1.1172,0,-1.1113,-1.1137,-1.1118,-1.1134,-1.1159,-1.1143,-1.1169,-1.1166,-1.1166,-1.118,-1.116,-1.1174,-1.1157,-1.1169,-1.116,-1.1184,-1.1187,-1.1184,-1.1181,-1.1185,-1.1186,-1.1189,-1.1185,-1.1174,-1.1174,-1.1173,-1.1173,0,-1.1179,-1.1168,-1.1193,-1.1187,-1.1186,-1.1206,-1.1201,-1.1215,-1.1208,-1.1226,-1.123,-1.1219,-1.1233,-1.1221,-1.1235,-1.1228,-1.126,-1.1253,-1.126,-1.1257,-1.1283,-1.1281,-1.1368,-1.1378,-1.1297,-1.1298,-1.1298,0,-1.1219,-1.1236,-1.1232,-1.124,-1.124,-1.1253,-1.126,-1.1244,-1.1252,-1.1255,-1.1268,-1.128,-1.1288,-1.131,-1.1304,-1.1314,-1.1307,-1.1336,-1.1308,-1.1312,-1.1307,-1.1306,-1.1307,-1.1342,-1.1343,-1.1344,-1.1345,0,-1.1291,-1.1284,-1.1294,-1.1302,-1.1309,-1.1315,-1.1319,-1.1327,-1.1311,-1.132,-1.1333,-1.134,-1.1353,-1.1364,-1.1372,-1.1372,-1.1356,-1.1354,-1.136,-1.1364,-1.1368,-1.1366,-1.1275,-1.1352,-1.1351,-1.135,-1.135,-1.135,-1.1345,-1.1359,-1.1358,-1.137,-1.1371,-1.1375,-1.1387,-1.1382,-1.1392,-1.1401,-1.1392,-1.1408,-1.1409,-1.1417,-1.1419,-1.1431,-1.1419,-1.1428,-1.143,-1.1432,-1.1436,-1.1366,-1.1432,-1.1432,-1.1432,-1.1432,-1.1432,0,-1.1416,-1.1414,-1.1424,-1.143,-1.1439,-1.1423,-1.1426,-1.1435,-1.1449,-1.1451,-1.1459,-1.1474,-1.1485,-1.148,-1.1489,-1.15,-1.1493,-1.1503,-1.1502,-1.1502,-1.1447,-1.144,-1.1509,-1.1509,-1.1509,-1.1509,-1.1509,-1.1509,-1.1453,-1.1477,-1.147,-1.1493,-1.1492,-1.1507,-1.151,-1.1513,-1.1515,-1.1532,-1.1541,-1.1537,-1.1536,-1.1545,-1.1555,-1.1553,-1.1558,-1.157,-1.1566,-1.1514,-1.1506,-1.1499,-1.1493,-1.1572,-1.1572,-1.1621,-1.1621,-1.1621]},{"header":{"parameterUnit":"m.s-1","parameterCategory":1,"la1":30.2991,"la2":30.254,"lo1":-89.0895,"lo2":-89.0444,"dy":0.0017,"dx":0.0017,"nx":28,"ny":28,"refTime":"2025-06-23T03:00:00:Z","depth":0,"parameterNumber":3,"parameterNumberName":"V-component_of_WINDS"},"data":[0,0,0,0,0,0,0,0,0,0,0,0,0,0,0,0,0,0,0,0,0,0,0,0,0,0,0,0,0,0,0,0,0,0,0,0,0,0,0,0,0,0,0,0,0,0,0,0,0,0,0,0,0,0,0,0,0,0,2.4801,2.4801,0,2.4787,2.4787,2.4786,2.4735,2.4734,2.4733,2.4732,2.4717,2.4717,2.4718,0,0,0,0,0,0,0,0,0,0,0,0,0,2.4783,2.4784,2.4801,2.4801,2.4801,2.4787,2.4787,2.4786,2.4735,2.4734,2.4733,2.4731,2.4717,2.4717,2.4718,0,0,0,0,0,0,0,0,0,0,0,0,0,2.4782,2.4784,2.4801,2.4774,2.4771,2.4787,2.4787,2.4786,2.4736,2.4734,2.4732,2.4731,2.4716,2.4717,2.4718,2.476,0,0,2.4721,2.4722,0,0,0,0,0,0,0,0,2.4782,2.4783,2.4778,2.4776,2.4773,2.4761,2.4775,2.4777,2.4736,2.4749,2.4732,2.473,2.4733,2.4732,2.4734,2.4759,2.4758,2.4722,2.4722,2.4723,2.4723,0,0,0,0,0,0,0,2.4783,2.4783,2.4795,2.4778,2.4775,2.4762,2.476,2.4775,2.4751,2.4748,2.4744,2.4743,2.4731,2.4733,2.4733,2.4758,2.4722,2.4722,2.4723,2.4723,2.4814,2.4816,0,0,0,0,0,0,2.4787,2.4784,2.4796,2.4795,2.4773,2.4763,2.4761,2.4767,2.4751,2.4747,2.4745,2.4741,2.4732,2.4732,2.4732,2.4778,2.4723,2.4724,2.4724,2.4812,2.4815,2.4816,0,0,0,0,0,0,2.4787,2.4788,2.4797,2.4788,2.4788,2.4766,2.4772,2.4767,2.4769,2.4748,2.4744,2.4751,2.473,2.4731,2.4753,2.4776,2.4724,2.4725,2.481,2.4813,2.4816,2.487,0,0,0,0,0,0,2.4786,2.4789,2.4804,2.4789,2.4789,2.4818,2.4774,2.4768,2.4771,2.4765,2.4753,2.4749,2.4729,2.4751,2.4754,2.4777,2.4726,2.4808,2.4811,2.4815,2.4866,2.4874,2.4882,0,0,0,0,0,2.4786,2.4821,2.4805,2.4807,2.4808,2.4819,2.4819,2.4796,2.4773,2.4788,2.4775,2.4749,2.4774,2.4754,2.4756,2.478,2.4806,2.4811,2.4814,2.4863,2.4873,2.4881,0,0,0,0,0,0,2.484,2.4818,2.4801,2.4832,2.4828,2.4811,2.4829,2.4808,2.481,2.4805,2.4776,2.4773,2.4799,2.4792,2.477,2.4818,2.4786,2.479,2.4822,2.4831,2.4839,2.4839,2.4727,0,0,0,0,0,2.4855,2.4866,2.4847,2.4876,2.4875,2.4853,2.4856,2.4839,2.4833,2.4831,2.4819,2.4815,2.4821,2.4826,2.4831,2.4865,2.4861,2.4883,2.489,2.4897,2.4901,2.4916,2.4925,2.483,2.483,2.483,0,0,2.4887,2.4877,2.4886,2.4886,2.4881,2.4892,2.4851,2.4866,2.4873,2.4833,2.4852,2.4844,2.4837,2.4865,2.4876,2.4859,2.4926,2.4902,2.4907,2.4908,2.4922,2.4931,2.4939,2.4832,2.4832,2.4832,0,0,2.4951,2.4945,2.4968,2.4963,2.4955,2.494,2.4945,2.4931,2.4924,2.4943,2.4913,2.4921,2.4934,2.4929,2.4928,2.499,2.4966,2.4992,2.5032,2.5047,2.5055,2.5061,2.5082,2.5089,2.4996,2.4996,2.4997,0,2.4992,2.5008,2.4982,2.4998,2.4998,2.4962,2.4985,2.4981,2.4976,2.4977,2.4958,2.4971,2.4964,2.499,2.5004,2.5006,2.501,2.4993,2.5056,2.5062,2.5068,2.5087,2.5095,2.5,2.4999,2.4999,2.4999,0,2.5057,2.5069,2.5088,2.5083,2.5086,2.5105,2.5081,2.5088,2.5069,2.5056,2.5075,2.5065,2.5067,2.5072,2.5055,2.5094,2.5084,2.5061,2.5028,2.5081,2.5098,2.5105,2.5004,2.5003,2.5002,2.5001,0,0,2.5154,2.5134,2.5141,2.5138,2.5126,2.5134,2.5151,2.5152,2.5157,2.5155,2.5167,2.5178,2.5156,2.5155,2.5137,2.5151,2.5198,2.5127,2.5126,2.5139,2.5239,2.5255,2.5264,2.5183,2.5184,2.5185,2.5239,0,2.5213,2.5241,2.5218,2.5249,2.5259,2.5224,2.5239,2.5233,2.5221,2.5227,2.5213,2.522,2.5192,2.5191,2.5204,2.519,2.5218,2.5186,2.5193,2.5193,2.5194,2.5273,2.5291,2.5342,2.5246,2.5247,2.5248,0,2.5286,2.5286,2.5318,2.5303,2.5306,2.5319,2.5317,2.5324,2.5316,2.5306,2.5305,2.5283,2.5297,2.5265,2.5284,2.5263,2.5265,2.5258,2.526,2.5258,2.5223,2.5273,2.5358,2.5366,2.5259,2.5258,2.5257,0,2.5351,2.5359,2.5379,2.5377,2.536,2.537,2.5364,2.5354,2.5356,2.5355,2.5355,2.5356,2.5356,2.5357,2.5335,2.5314,2.5356,2.5323,2.5347,2.5347,2.5356,2.5356,2.5442,2.536,2.536,2.536,2.536,0,2.5419,2.544,2.5408,2.542,2.5442,2.5415,2.5437,2.5427,2.5419,2.5427,2.5398,2.5407,2.5378,2.5384,2.5367,2.5384,2.5385,2.5377,2.5372,2.5378,2.5379,2.5378,2.5373,2.5362,2.5361,2.5361,2.5361,0,2.5495,2.5475,2.5494,2.5476,2.5472,2.5489,2.5473,2.5483,2.5469,2.548,2.5482,2.5459,2.5464,2.5443,2.5444,2.5433,2.5458,2.5448,2.5461,2.5457,2.5482,2.5479,2.5569,2.5579,2.5492,2.5493,2.5494,0,2.5539,2.5554,2.5537,2.5541,2.5536,2.5543,2.5544,2.5518,2.552,2.5512,2.5523,2.5525,2.5526,2.5535,2.5519,2.5519,2.5508,2.5539,2.5508,2.5514,2.5506,2.5505,2.5506,2.5546,2.5547,2.5548,2.5548,0,2.5618,2.5607,2.561,2.5609,2.5611,2.561,2.5606,2.5611,2.5583,2.5587,2.5591,2.5592,2.5593,2.5595,2.5592,2.5585,2.5562,2.5559,2.5564,2.557,2.5576,2.5572,2.5477,2.5556,2.5556,2.5555,2.5555,2.5554,2.5678,2.5689,2.5679,2.5683,2.5677,2.5674,2.5682,2.5668,2.5672,2.567,2.5655,2.5662,2.5652,2.5646,2.5641,2.5645,2.563,2.5639,2.564,2.5643,2.5646,2.5577,2.5645,2.5645,2.5645,2.5644,2.5644,0,2.5755,2.5746,2.575,2.5745,2.5748,2.5726,2.572,2.5724,2.573,2.5723,2.5724,2.5729,2.5731,2.5714,2.5714,2.5721,2.571,2.5721,2.572,2.5718,2.566,2.5655,2.573,2.573,2.573,2.573,2.573,2.573,2.5795,2.5811,2.5799,2.5812,2.5803,2.581,2.5808,2.5805,2.5799,2.5805,2.5806,2.5795,2.5784,2.5782,2.5783,2.5778,2.5778,2.5793,2.5784,2.5731,2.5722,2.5714,2.5709,2.5794,2.5794,2.5841,2.5842,2.5842]}]]